This demonstration page uses our WeatherBlox Daily Observations layout. Learn more.

Left ArrowRight Arrow

Hourly Observations for July 30, 2018

Temp ( °F °C ) Dew Point ( °F °C ) Humidity (%) Winds ( mph kmh ) Pressure ( in mb ) Visibility ( mi km ) Precip ( " mm )
12:16 am 00:16 Cloudy 66 19 66 19 100 100 N N/A 30.12 1020 10 16.0934 N/A
12:37 am 00:37 Cloudy 64 18 64 18 100 100 NW 3 6 30.12 1020 7 11.26538 N/A
12:56 am 00:56 Cloudy 64 18 64 18 100 100 NNE 7 11 30.12 1020 2.5 4.02335 N/A
1:16 am 01:16 Cloudy 64 18 64 18 100 100 NE 7 11 30.12 1020 5 8.0467 N/A
1:37 am 01:37 Cloudy 64 18 64 18 100 100 NE 5 7 30.12 1020 10 16.0934 N/A
1:56 am 01:56 Cloudy 64 18 64 18 100 100 ENE 5 7 30.12 1020 10 16.0934 N/A
2:17 am 02:17 Cloudy 63 17 63 17 100 100 ENE 3 6 30.12 1020 10 16.0934 N/A
2:36 am 02:36 Cloudy 63 17 63 17 100 100 E 6 9 30.12 1020 7 11.26538 N/A
2:56 am 02:56 Cloudy 63 17 63 17 100 100 E 6 9 30.09 1019 10 16.0934 N/A
3:17 am 03:17 Cloudy 63 17 63 17 100 100 ENE 6 9 30.09 1019 10 16.0934 N/A
3:36 am 03:36 Cloudy 63 17 63 17 100 100 NE 5 7 30.09 1019 10 16.0934 N/A
3:57 am 03:57 Cloudy 63 17 63 17 100 100 N N/A 30.09 1019 7 11.26538 N/A
4:16 am 04:16 Cloudy 63 17 63 17 100 100 E 3 6 30.09 1019 5 8.0467 N/A
4:36 am 04:36 Cloudy 63 17 63 17 100 100 ENE 5 7 30.09 1019 5 8.0467 N/A
4:57 am 04:57 Cloudy 63 17 63 17 100 100 NE 7 11 30.09 1019 5 8.0467 N/A
5:16 am 05:16 Cloudy 63 17 63 17 100 100 E 5 7 30.06 1018 5 8.0467 N/A
5:37 am 05:37 Cloudy 63 17 63 17 100 100 ENE 3 6 30.06 1018 5 8.0467 N/A
5:56 am 05:56 Cloudy 63 17 63 17 100 100 N N/A 30.06 1018 5 8.0467 N/A
6:16 am 06:16 Cloudy 63 17 63 17 100 100 N N/A 30.06 1018 5 8.0467 N/A
6:37 am 06:37 Cloudy 63 17 63 17 100 100 N N/A 30.06 1018 5 8.0467 N/A
6:56 am 06:56 Cloudy 63 17 63 17 100 100 N N/A 30.09 1019 5 8.0467 N/A
7:17 am 07:17 Cloudy 63 17 63 17 100 100 N N/A 30.09 1019 5 8.0467 N/A
7:36 am 07:36 Cloudy 63 17 63 17 100 100 N N/A 30.09 1019 4 6.43736 N/A
7:56 am 07:56 Cloudy 63 17 63 17 100 100 N N/A 30.09 1019 2.5 4.02335 N/A
8:17 am 08:17 Cloudy 64 18 64 18 100 100 N N/A 30.09 1019 3 4.82802 N/A
8:36 am 08:36 Mostly Cloudy 64 18 64 18 100 100 ESE 3 6 30.09 1019 5 8.0467 N/A
8:57 am 08:57 Cloudy 64 18 64 18 100 100 E 5 7 30.06 1018 10 16.0934 N/A
9:16 am 09:16 Cloudy 64 18 64 18 100 100 E 5 7 30.09 1019 10 16.0934 N/A
9:36 am 09:36 Cloudy 64 18 64 18 100 100 NNE 3 6 30.09 1019 5 8.0467 N/A
9:57 am 09:57 Cloudy 64 18 64 18 100 100 NE 3 6 30.09 1019 5 8.0467 N/A
10:16 am 10:16 Cloudy 66 19 66 19 100 100 NNE 3 6 30.09 1019 4 6.43736 N/A
10:37 am 10:37 Cloudy 64 18 64 18 100 100 ENE 3 6 30.09 1019 2.5 4.02335 N/A
10:56 am 10:56 Cloudy 64 18 64 18 100 100 ENE 6 9 30.09 1019 10 16.0934 N/A
11:17 am 11:17 Cloudy 66 19 66 19 100 100 NE 7 11 30.09 1019 10 16.0934 N/A
11:36 am 11:36 Cloudy 66 19 66 19 100 100 NNE 7 11 30.09 1019 10 16.0934 N/A
11:57 am 11:57 Cloudy 66 19 66 19 100 100 NNE 6 9 30.12 1020 10 16.0934 N/A
12:16 pm 12:16 Cloudy 64 18 64 18 100 100 NNE 7 11 30.09 1019 10 16.0934 N/A
12:37 pm 12:37 Cloudy 66 19 66 19 100 100 NE 3 6 30.09 1019 5 8.0467 N/A
12:56 pm 12:56 Cloudy 66 19 66 19 100 100 NE 6 9 30.09 1019 5 8.0467 N/A
1:17 pm 13:17 Cloudy 66 19 66 19 100 100 ENE 8 13 30.09 1019 10 16.0934 N/A
1:37 pm 13:37 Cloudy 66 19 66 19 100 100 NE 7 11 30.09 1019 7 11.26538 N/A
1:56 pm 13:56 Cloudy 66 19 66 19 100 100 NE 7 11 30.09 1019 2 3.21868 N/A
2:17 pm 14:17 Cloudy 66 19 66 19 100 100 NE 7 11 30.09 1019 4 6.43736 N/A
2:36 pm 14:36 Cloudy 66 19 66 19 100 100 N 3 6 30.09 1019 7 11.26538 N/A
2:57 pm 14:57 Cloudy 66 19 66 19 100 100 NNE 5 7 30.09 1019 4 6.43736 N/A
3:16 pm 15:16 Cloudy 66 19 66 19 100 100 E 8 13 30.06 1018 7 11.26538 N/A
3:37 pm 15:37 Cloudy 68 20 68 20 100 100 ENE 5 7 30.06 1018 10 16.0934 N/A
3:56 pm 15:56 Cloudy 68 20 68 20 100 100 E 6 9 30.06 1018 10 16.0934 N/A
4:17 pm 16:17 Mostly Cloudy 68 20 68 20 100 100 E 9 15 30.06 1018 10 16.0934 N/A
4:37 pm 16:37 Mostly Cloudy 68 20 68 20 100 100 ENE 6 9 30.06 1018 10 16.0934 N/A
4:56 pm 16:56 Mostly Cloudy 68 20 68 20 100 100 ENE 6 9 30.06 1018 10 16.0934 N/A
5:17 pm 17:17 Mostly Cloudy 70 21 70 21 100 100 NE 8 13 30.06 1018 10 16.0934 N/A
5:36 pm 17:36 Cloudy 70 21 70 21 100 100 NNE 7 11 30.06 1018 10 16.0934 N/A
5:56 pm 17:56 Partly Cloudy 70 21 70 21 100 100 NE 9 15 30.06 1018 10 16.0934 N/A
6:17 pm 18:17 Partly Cloudy 70 21 70 21 100 100 NNE 10 17 30.06 1018 10 16.0934 N/A
6:36 pm 18:36 Mostly Cloudy 70 21 70 21 100 100 NE 8 13 30 1016 10 16.0934 N/A
6:57 pm 18:57 Cloudy 70 21 68 20 94 94 NE 9 15 30 1016 10 16.0934 N/A
7:16 pm 19:16 Mostly Cloudy 70 21 70 21 100 100 NE 6 9 30 1016 10 16.0934 N/A
7:37 pm 19:37 Mostly Cloudy 70 21 68 20 94 94 NNE 9 15 30 1016 10 16.0934 N/A
7:56 pm 19:56 Cloudy 68 20 68 20 100 100 NE 7 11 30.03 1017 10 16.0934 N/A
8:17 pm 20:17 Cloudy 68 20 68 20 100 100 NE 6 9 30.03 1017 10 16.0934 N/A
8:36 pm 20:36 Cloudy 68 20 68 20 100 100 NNE 6 9 30.03 1017 10 16.0934 N/A
8:57 pm 20:57 Cloudy 68 20 68 20 100 100 NNE 6 9 30.03 1017 10 16.0934 N/A
9:16 pm 21:16 Cloudy 68 20 68 20 100 100 NNE 3 6 30.03 1017 10 16.0934 N/A
9:37 pm 21:37 Cloudy 66 19 66 19 100 100 N N/A 30.03 1017 10 16.0934 N/A
9:56 pm 21:56 Cloudy 66 19 66 19 100 100 NE 3 6 30.03 1017 10 16.0934 N/A
10:16 pm 22:16 Cloudy 66 19 66 19 100 100 N N/A 30.03 1017 10 16.0934 N/A
10:37 pm 22:37 Cloudy 66 19 66 19 100 100 N N/A 30.06 1018 10 16.0934 N/A
10:56 pm 22:56 Cloudy 66 19 66 19 100 100 ENE 5 7 30.03 1017 10 16.0934 N/A
11:17 pm 23:17 Cloudy 66 19 66 19 100 100 ENE 5 7 30.03 1017 10 16.0934 N/A
11:36 pm 23:36 Cloudy 66 19 66 19 100 100 NNE 6 9 30.03 1017 7 11.26538 N/A
11:57 pm 23:57 Mostly Cloudy 64 18 64 18 100 100 E 5 7 30.03 1017 7 11.26538 N/A

Powered by AerisWeather